Regional Weather Roundup
Issued by NWS Bismarck, ND

Home | Current Version | Previous Version | Text Only | Print | Product List | Glossary On
Versions: 1 2 3 4 5 6 7 8 9 10 11 12 13 14 15 16 17 18 19 20 21 22 23 24 25 26 27 28 29 30 31 32 33 34 35 36 37 38 39 40 41 42 43 44 45 46 47 48 49 50
000
ASUS43 KBIS 290920
RWRBIS

NWR BROADCAST TEXT
NATIONAL WEATHER SERVICE BISMARCK ND
400 AM CDT SUN MAR 29 2015

NOTE: "FAIR" INDICATES FEW OR NO CLOUDS BELOW 12,000 FEET WITH NO
SIGNIFICANT WEATHER AND/OR OBSTRUCTIONS TO VISIBILITY.


CITY           SKY/WX    TMP DP  RH WIND       PRES   REMARKS
WILLISTON      PTCLDY    38  33  82 NW21G29   29.92R
MINOT          LGT RAIN  40  34  79 NW29G38   29.71R
MINOT AFB      CLOUDY    40  40  99 NW28G35   29.71R
BISMARCK       RAIN      45  43  93 NW15G24   29.63R
DICKINSON      CLOUDY    39  36  89 NW23G40   29.85R
GARRISON         N/A     40  37  89 NW30G40   29.71R
HETTINGER ARPT LGT RAIN  40  38  93 NW33G46   29.83R
JAMESTOWN      HVY RAIN  46  42  86 W26G36    29.51R FOG
BEACH          CLOUDY    39  39 100 NW28G41   29.97R
CARRINGTON     CLOUDY    41  41 100 NW25G37   29.54R
CROSBY         FAIR      36  36 100 NW17G23   29.89R
HARVEY         CLOUDY    39  39 100 NW30G43   29.59R
HAZEN          LGT RAIN  39  36  87 NW26G40   29.75R
LINTON         CLOUDY    43  41  93 W15G23    29.63R
MANDAN         LGT RAIN  45  43  93 NW33G43   29.65R
OAKES            N/A     45  43  93 W20G26    29.54F
RUGBY          CLOUDY    39  37  93 NW25G32   29.61R
TIOGA          FAIR      36  36 100 NW26G33   29.87R
WATFORD CITY   FAIR      37  34  87 NW20G29   29.89R
$$

CITY           SKY/WX    TMP DP  RH WIND       PRES   REMARKS
GRAND FORKS    LGT RAIN  43  40  89 SW10      29.41F
GRAND FORKS AF CLOUDY    46  43  87 NW17G29   29.42R
DEVILS LAKE    CLOUDY    41  36  81 N20G32    29.53R
FARGO          CLOUDY    41  37  86 S21       29.48F
CANDO          CLOUDY    39  37  93 N24G36    29.57R
CAVALIER       CLOUDY    39  37  93 N25G39    29.47R
GWINNER        CLOUDY    45  45 100 SW14        N/A
ROLLA          CLOUDY    36  36 100 N30G37    29.61R
WALHALLA         N/A     39  39 100 N21G37    29.50R
$$

CITY           SKY/WX    TMP DP  RH WIND       PRES   REMARKS
ABERDEEN       CLEAR     40  37  89 W10       29.61F
MOBRIDGE       CLOUDY    48  37  65 W20G26    29.66S
BUFFALO          N/A     42  37  82 NW43G60   29.84R
RAPID CITY     MOCLDY    49  31  49 NW44G54   29.91R
GLASGOW        CLEAR     40  33  76 NW12      30.06R
SIDNEY         CLEAR     39  34  81 W16       29.99R
WOLF POINT     CLEAR     40  35  83 NW14      30.05R
GLENDIVE         N/A     37  34  87 NW15G22   30.05R
MILES CITY     CLOUDY    43  43 100 W14       30.11R
BAKER          LGT RAIN  41 N/A N/A NW29G43   29.97R
$$

CITY           SKY/WX    TMP DP  RH WIND       PRES   REMARKS
BILLINGS       CLEAR     46  23  40 W16       30.19R
GREAT FALLS    CLEAR     40  28  62 SW14      30.16S
REGINA         CLEAR     34  32  93 NW14      29.91R
ESTEVAN        CLEAR     36  32  87 NW17G25   29.86R
$$



USA.gov is the U.S. government's official web portal to all federal, state and local government web resources and services.